Regional Weather Roundup
Issued by NWS

Home | Current Version | Previous Version | Text Only | Print | Product List | Glossary On
Versions: 1 2 3 4 5 6 7 8 9 10 11 12 13 14 15 16 17 18 19 20 21 22 23 24 25 26 27 28 29 30 31 32 33 34 35 36 37 38 39 40 41 42 43 44 45 46 47 48 49 50
000
ASUS43 KFSD 281902
RWRSD

WEATHER ROUNDUP FOR SOUTH DAKOTA
NATIONAL WEATHER SERVICE SIOUX FALLS SD
200 PM CDT THU APR 28 2016

NOTE: "FAIR" INDICATES FEW OR NO CLOUDS BELOW 12,000 FEET WITH NO
SIGNIFICANT WEATHER AND/OR OBSTRUCTIONS TO VISIBILITY.


SDZ001>005-009-010-012>017-282000-
NORTHWEST AND NORTH CENTRAL SOUTH DAKOTA

CITY           SKY/WX    TMP DP  RH WIND       PRES   REMARKS
BUFFALO          N/A     37  33  85 E9        30.03R
FAITH            N/A     37  31  78 NE9       30.08R
MOBRIDGE       CLOUDY    51  37  58 N13       30.03F
$$

SDZ012>016-024>037-041>051-057-063-072>074-282000-
SOUTHWEST AND SOUTH CENTRAL SOUTH DAKOTA

CITY           SKY/WX    TMP DP  RH WIND       PRES   REMARKS
RAPID CTY ARPT CLOUDY    40  34  79 N10       30.05F
PIERRE         CLOUDY    45  35  68 NE14      30.04S
CUSTER         CLOUDY    33  25  72 CALM      29.98S
ELLSWORTH AFB  CLOUDY    40  35  83 N12       30.04F
PHILIP         CLOUDY    40  35  83 NE13      30.07R
PINE RIDGE     CLOUDY    41  33  73 N5        30.03F
WINNER         CLOUDY    42  36  79 N14       30.04R
$$

SDZ004>011-016>023-039-040-282000-
NORTHEAST SOUTH DAKOTA

CITY           SKY/WX    TMP DP  RH WIND       PRES   REMARKS
ABERDEEN       CLOUDY    48  32  53 N13       30.05S
WATERTOWN      FLURRIES  38  34  85 NE10      30.02R
BROOKINGS      CLOUDY    37  33  85 NE9       29.99S
SISSETON         N/A     46  30  53 NE8       30.05R
$$

SDZ017-020-022-023-036>040-048>070-282000-
SOUTHEAST SOUTH DAKOTA

CITY           SKY/WX    TMP DP  RH WIND       PRES   REMARKS
SIOUX FALLS    CLOUDY    41  37  86 N12       29.98S
HURON          CLOUDY    42  37  82 MISG      30.03S
MITCHELL       CLOUDY    42  38  85 NE13      30.02S
YANKTON        CLOUDY    43  37  81 NW12      29.99R
$$

ABBREVIATIONS USED IN REMARKS
   TC - TEMPERATURE IN CELSIUS
  WCI - WIND CHILL INDEX
   HX - HEAT INDEX
  VSB - VISIBILITY





USA.gov is the U.S. government's official web portal to all federal, state and local government web resources and services.